Find Meteor

NORAD ID: 7714 Int'l Des: 1975-023 Owner: GUKOSR/GMS Country: SU operational
LEOCIRCULARPOLAR

Live-Position

3D-Globus wird geladen...

Über Meteor

Beschreibung wird geladen...

Nächste Überflüge

Passes for default location (London). Set your location on the main map for personalized predictions.

Höhenverlauf

Loading altitude history...

Zweizeiliger Elementsatz

1 07714U 75023A 26106.22776454 .00000039 00000-0 15162-4 0 9999
2 07714 81.1891 290.0189 0030378 166.8937 193.3029 14.08467850938818
Epoch: 16. Apr. 2026 • Age: 12 hours

Aktueller Status

Höhe 881.0 km
Geschwindigkeit 7.41 km/s
Subsatellitenpunkt 55.01°N, 167.63°W
Typ other

Most Searched